Regional Weather Roundup
Issued by NWS Albany, NY

Current Version | Previous Version | Graphics & Text | Print | Product List | Glossary Off
Versions: 1 2 3 4 5 6 7 8 9 10 11 12 13 14 15 16 17 18 19 20 21 22 23 24 25 26 27 28 29 30 31 32 33 34 35 36 37 38 39 40 41 42 43 44 45 46 47 48 49 50

148
ASUS41 KALY 021210
RWRALY

NEW YORK STATE HOURLY WEATHER ROUNDUP
NATIONAL WEATHER SERVICE ALBANY NY
700 AM EST FRI DEC 02 2016

NOTE: "FAIR" INDICATES FEW OR NO CLOUDS BELOW 12,000 FEET WITH NO
SIGNIFICANT WEATHER AND/OR NO OBSTRUCTIONS TO VISIBILITY.

NYZ032-033-038>043-046>054-057>066-NYZ062>081-082-084-021300-
EAST


CITY           SKY/WX    TMP DP  RH WIND       PRES   REMARKS
ALBANY         MOCLDY    40  31  70 S6        29.79R
GLENS FALLS    CLOUDY    40  31  70 S7        29.75R
POUGHKEEPSIE   PTCLDY    37  28  70 S6        29.85R WCI  32
NEWBURGH       PTCLDY    36  30  80 SW9       29.87R WCI  29
MONTGOMERY     PTCLDY    34  28  79 SW6       29.86R WCI  29
WHITE PLAINS   PTCLDY    37  27  67 W7        29.86R WCI  32
ISLIP          PTCLDY    36  28  73 W5        29.89R WCI  32
NEW YORK CITY  PTCLDY    44  29  55 W14       29.90R
CENTRAL PARK   PTCLDY    41  28  60 VRB5      29.92R
$$

NYZ005>009-017-018-044>046-055-056-021300-
CENTRAL


CITY           SKY/WX    TMP DP  RH WIND       PRES   REMARKS
FULTON         CLOUDY    42  34  73 SW14G22   29.78R
SYRACUSE       LGT RAIN  41  34  76 W14       29.79R
ROME           LGT RAIN  41  35  79 W12G18    29.78S
ELMIRA         CLOUDY    40  31  70 W7        29.85R
BINGHAMTON     CLOUDY    35  30  82 W10       29.81R WCI  27
MONTICELLO     CLOUDY    34  28  80 W9        29.84R WCI  26
$$

NYZ026>034-041>043-087-021300-
NORTH


CITY           SKY/WX    TMP DP  RH WIND       PRES   REMARKS
WATERTOWN      CLOUDY    43  34  70 W20G29    29.73R
FORT DRUM      NOT AVBL
OGDENSBURG     CLOUDY    43  37  78 SW9G17    29.67R
MASSENA        CLOUDY    43  35  73 SW12      29.66R
SARANAC LAKE   MIX PCPN  34  32  92 SW8       29.64R WCI  27
PLATTSBURGH    CLOUDY    41  35  79 S5        29.67R
$$

NYZ001>004-010>016-019>021-085-021300-
WEST


CITY           SKY/WX    TMP DP  RH WIND       PRES   REMARKS
NIAGARA FALLS  PTCLDY    40  32  73 W16       29.84R WCI  31
BUFFALO        PTCLDY    39  31  72 W17G24    29.84R WCI  30
DUNKIRK        CLOUDY    41  32  70 W20G33    29.89R
JAMESTOWN      CLOUDY    34  30  86 SW8       29.87R WCI  27
WELLSVILLE     LGT SNOW  35  31  85 W10       29.84R FOG     WCI  27
ROCHESTER      PTCLDY    40  32  73 W15       29.82R WCI  32
PENN YAN       MOCLDY    40  31  70 W15       29.82R WCI  32
$$

             KEY
       WCI = WIND CHILL INDEX
       VSB = VISIBILITY
       HX  = HEAT INDEX
$$




USA.gov is the U.S. government's official web portal to all federal, state and local government web resources and services.